Year,Month,Day,Hour,Minute,Value (Times are PST for windgust in km/hr)
2013,12,23,00,12,1.60
2013,12,23,00,32,1.60
2013,12,23,00,33,1.60
2013,12,23,00,34,1.60
2013,12,23,00,42,1.60
2013,12,23,00,44,1.60
2013,12,23,00,52,1.60
2013,12,23,00,56,1.60
2013,12,23,00,57,1.60
2013,12,23,00,58,1.60
2013,12,23,00,59,1.60
2013,12,23,01,11,1.60
2013,12,23,01,12,3.20
2013,12,23,01,13,1.60
2013,12,23,01,15,1.60
2013,12,23,01,16,1.60
2013,12,23,01,18,1.60
2013,12,23,01,19,3.20
2013,12,23,01,20,4.80
2013,12,23,01,21,3.20
2013,12,23,01,23,1.60
2013,12,23,01,26,3.20
2013,12,23,01,27,4.80
2013,12,23,01,28,3.20
2013,12,23,01,29,1.60
2013,12,23,01,30,1.60
2013,12,23,01,31,1.60
2013,12,23,01,32,3.20
2013,12,23,01,33,3.20
2013,12,23,01,34,3.20
2013,12,23,01,35,1.60
2013,12,23,01,36,1.60
2013,12,23,01,39,1.60
2013,12,23,01,40,1.60
2013,12,23,01,43,1.60
2013,12,23,01,44,3.20
2013,12,23,01,45,1.60
2013,12,23,01,46,1.60
2013,12,23,01,48,1.60
2013,12,23,01,49,1.60
2013,12,23,01,51,3.20
2013,12,23,01,52,3.20
2013,12,23,01,53,3.20
2013,12,23,01,55,1.60
2013,12,23,01,56,3.20
2013,12,23,01,57,3.20
2013,12,23,01,58,3.20
2013,12,23,01,59,1.60
2013,12,23,02,00,3.20
2013,12,23,02,01,3.20
2013,12,23,02,02,4.80
2013,12,23,02,03,4.80
2013,12,23,02,04,4.80
2013,12,23,02,05,1.60
2013,12,23,02,06,4.80
2013,12,23,02,07,4.80
2013,12,23,02,08,6.40
2013,12,23,02,09,4.80
2013,12,23,02,10,1.60
2013,12,23,02,12,1.60
2013,12,23,02,13,1.60
2013,12,23,02,19,1.60
2013,12,23,02,20,1.60
2013,12,23,02,30,1.60
2013,12,23,02,31,1.60
2013,12,23,02,32,1.60
2013,12,23,02,33,1.60
2013,12,23,02,34,1.60
2013,12,23,02,42,1.60
2013,12,23,02,43,1.60
2013,12,23,02,57,1.60
2013,12,23,02,58,1.60
2013,12,23,03,01,1.60
2013,12,23,03,02,1.60
2013,12,23,03,12,1.60
2013,12,23,03,14,1.60
2013,12,23,03,16,1.60
2013,12,23,03,17,3.20
2013,12,23,03,18,1.60
2013,12,23,03,19,3.20
2013,12,23,03,20,3.20
2013,12,23,03,24,1.60
2013,12,23,03,26,1.60
2013,12,23,03,27,1.60
2013,12,23,03,30,1.60
2013,12,23,03,31,1.60
2013,12,23,03,32,1.60
2013,12,23,03,36,3.20
2013,12,23,03,38,1.60
2013,12,23,03,39,1.60
2013,12,23,03,40,3.20
2013,12,23,03,41,1.60
2013,12,23,03,42,1.60
2013,12,23,03,44,1.60
2013,12,23,03,45,3.20
2013,12,23,03,46,3.20
2013,12,23,03,47,3.20
2013,12,23,03,48,3.20
2013,12,23,03,49,3.20
2013,12,23,03,50,1.60
2013,12,23,03,51,1.60
2013,12,23,03,52,1.60
2013,12,23,03,53,1.60
2013,12,23,03,54,1.60
2013,12,23,04,04,1.60
2013,12,23,04,15,1.60
2013,12,23,04,16,1.60
2013,12,23,04,22,1.60
2013,12,23,04,35,1.60
2013,12,23,04,48,1.60
2013,12,23,04,49,1.60
2013,12,23,05,08,1.60
2013,12,23,05,17,1.60
2013,12,23,05,19,1.60
2013,12,23,05,24,1.60
2013,12,23,05,32,1.60
2013,12,23,05,33,1.60
2013,12,23,05,42,1.60
2013,12,23,05,43,1.60
2013,12,23,05,45,1.60
2013,12,23,05,47,1.60
2013,12,23,05,48,1.60
2013,12,23,06,01,1.60
2013,12,23,06,02,1.60
2013,12,23,06,19,1.60
2013,12,23,06,23,1.60
2013,12,23,06,42,1.60
2013,12,23,06,44,4.80
2013,12,23,06,45,4.80
2013,12,23,06,47,1.60
2013,12,23,06,48,1.60
2013,12,23,06,49,1.60
2013,12,23,06,51,1.60
2013,12,23,06,53,1.60
2013,12,23,06,54,3.20
2013,12,23,06,55,1.60
2013,12,23,06,56,1.60
2013,12,23,06,57,1.60
2013,12,23,06,58,3.20
2013,12,23,06,59,11.30
2013,12,23,07,00,9.60
2013,12,23,07,01,6.40
2013,12,23,07,02,22.50
2013,12,23,07,03,17.70
2013,12,23,07,04,4.80
2013,12,23,07,05,8.10
2013,12,23,07,06,16.10
2013,12,23,07,07,8.10
2013,12,23,07,08,9.60
2013,12,23,07,09,6.40
2013,12,23,07,10,12.90
2013,12,23,07,11,16.10
2013,12,23,07,12,9.60
2013,12,23,07,13,1.60
2013,12,23,07,14,19.30
2013,12,23,07,15,12.90
2013,12,23,07,16,9.60
2013,12,23,07,17,6.40
2013,12,23,07,18,9.60
2013,12,23,07,19,19.30
2013,12,23,07,20,11.30
2013,12,23,07,21,6.40
2013,12,23,07,22,12.90
2013,12,23,07,23,8.10
2013,12,23,07,24,4.80
2013,12,23,07,25,11.30
2013,12,23,07,26,14.50
2013,12,23,07,27,8.10
2013,12,23,07,28,19.30
2013,12,23,07,29,6.40
2013,12,23,07,30,8.10
2013,12,23,07,31,12.90
2013,12,23,07,32,4.80
2013,12,23,07,33,6.40
2013,12,23,07,34,11.30
2013,12,23,07,35,17.70
2013,12,23,07,36,14.50
2013,12,23,07,37,12.90
2013,12,23,07,38,8.10
2013,12,23,07,39,8.10
2013,12,23,07,40,9.60
2013,12,23,07,41,12.90
2013,12,23,07,42,14.50
2013,12,23,07,43,16.10
2013,12,23,07,44,19.30
2013,12,23,07,45,19.30
2013,12,23,07,46,14.50
2013,12,23,07,47,17.70
2013,12,23,07,48,24.20
2013,12,23,07,49,14.50
2013,12,23,07,50,16.10
2013,12,23,07,51,22.50
2013,12,23,07,52,12.90
2013,12,23,07,53,19.30
2013,12,23,07,54,16.10
2013,12,23,07,55,20.90
2013,12,23,07,56,32.20
2013,12,23,07,57,17.70
2013,12,23,07,58,20.90
2013,12,23,07,59,20.90
2013,12,23,08,00,19.30
2013,12,23,08,01,17.70
2013,12,23,08,02,20.90
2013,12,23,08,03,19.30
2013,12,23,08,04,24.20
2013,12,23,08,05,14.50
2013,12,23,08,06,12.90
2013,12,23,08,07,19.30
2013,12,23,08,08,16.10
2013,12,23,08,09,17.70
2013,12,23,08,10,17.70
2013,12,23,08,11,27.40
2013,12,23,08,12,19.30
2013,12,23,08,13,29.00
2013,12,23,08,14,24.20
2013,12,23,08,15,14.50
2013,12,23,08,16,12.90
2013,12,23,08,17,14.50
2013,12,23,08,18,17.70
2013,12,23,08,19,33.80
2013,12,23,08,20,11.30
2013,12,23,08,21,16.10
2013,12,23,08,22,17.70
2013,12,23,08,23,12.90
2013,12,23,08,24,20.90
2013,12,23,08,25,17.70
2013,12,23,08,26,24.20
2013,12,23,08,27,19.30
2013,12,23,08,28,20.90
2013,12,23,08,29,24.20
2013,12,23,08,30,19.30
2013,12,23,08,31,14.50
2013,12,23,08,32,27.40
2013,12,23,08,33,17.70
2013,12,23,08,34,12.90
2013,12,23,08,35,20.90
2013,12,23,08,36,17.70
2013,12,23,08,37,8.10
2013,12,23,08,38,19.30
2013,12,23,08,39,20.90
2013,12,23,08,40,6.40
2013,12,23,08,41,19.30
2013,12,23,08,42,14.50
2013,12,23,08,43,8.10
2013,12,23,08,44,9.60
2013,12,23,08,45,8.10
2013,12,23,08,46,19.30
2013,12,23,08,47,19.30
2013,12,23,08,48,20.90
2013,12,23,08,49,30.60
2013,12,23,08,50,6.40
2013,12,23,08,51,25.70
2013,12,23,08,52,22.50
2013,12,23,08,53,22.50
2013,12,23,08,54,16.10
2013,12,23,08,55,16.10
2013,12,23,08,56,19.30
2013,12,23,08,57,16.10
2013,12,23,08,58,17.70
2013,12,23,08,59,24.20
2013,12,23,09,00,30.60
2013,12,23,09,01,22.50
2013,12,23,09,02,20.90
2013,12,23,09,03,22.50
2013,12,23,09,04,17.70
2013,12,23,09,05,24.20
2013,12,23,09,06,24.20
2013,12,23,09,07,27.40
2013,12,23,09,08,27.40
2013,12,23,09,09,19.30
2013,12,23,09,10,19.30
2013,12,23,09,11,25.70
2013,12,23,09,12,30.60
2013,12,23,09,13,20.90
2013,12,23,09,14,32.20
2013,12,23,09,15,20.90
2013,12,23,09,16,20.90
2013,12,23,09,17,29.00
2013,12,23,09,18,24.20
2013,12,23,09,19,25.70
2013,12,23,09,20,25.70
2013,12,23,09,21,20.90
2013,12,23,09,22,22.50
2013,12,23,09,23,17.70
2013,12,23,09,24,19.30
2013,12,23,09,25,20.90
2013,12,23,09,26,25.70
2013,12,23,09,27,11.30
2013,12,23,09,28,24.20
2013,12,23,09,29,32.20
2013,12,23,09,30,25.70
2013,12,23,09,31,25.70
2013,12,23,09,32,14.50
2013,12,23,09,33,24.20
2013,12,23,09,34,20.90
2013,12,23,09,35,29.00
2013,12,23,09,36,25.70
2013,12,23,09,37,25.70
2013,12,23,09,38,24.20
2013,12,23,09,39,29.00
2013,12,23,09,40,32.20
2013,12,23,09,41,17.70
2013,12,23,09,42,24.20
2013,12,23,09,43,27.40
2013,12,23,09,44,25.70
2013,12,23,09,45,27.40
2013,12,23,09,46,19.30
2013,12,23,09,47,24.20
2013,12,23,09,48,22.50
2013,12,23,09,49,41.80
2013,12,23,09,50,38.60
2013,12,23,09,51,20.90
2013,12,23,09,52,19.30
2013,12,23,09,53,33.80
2013,12,23,09,54,33.80
2013,12,23,09,55,20.90
2013,12,23,09,56,20.90
2013,12,23,09,57,35.40
2013,12,23,09,58,29.00
2013,12,23,09,59,25.70
2013,12,23,10,00,30.60
2013,12,23,10,01,29.00
2013,12,23,10,02,22.50
2013,12,23,10,03,24.20
2013,12,23,10,04,33.80
2013,12,23,10,05,30.60
2013,12,23,10,06,27.40
2013,12,23,10,07,24.20
2013,12,23,10,08,29.00
2013,12,23,10,09,20.90
2013,12,23,10,10,22.50
2013,12,23,10,11,27.40
2013,12,23,10,12,25.70
2013,12,23,10,13,24.20
2013,12,23,10,14,27.40
2013,12,23,10,15,33.80
2013,12,23,10,16,30.60
2013,12,23,10,17,29.00
2013,12,23,10,18,41.80
2013,12,23,10,19,32.20
2013,12,23,10,20,27.40
2013,12,23,10,21,33.80
2013,12,23,10,22,27.40
2013,12,23,10,23,20.90
2013,12,23,10,24,30.60
2013,12,23,10,25,20.90
2013,12,23,10,26,20.90
2013,12,23,10,27,33.80
2013,12,23,10,28,32.20
2013,12,23,10,29,25.70
2013,12,23,10,30,32.20
2013,12,23,10,31,25.70
2013,12,23,10,32,29.00
2013,12,23,10,33,25.70
2013,12,23,10,34,30.60
2013,12,23,10,35,29.00
2013,12,23,10,36,20.90
2013,12,23,10,37,29.00
2013,12,23,10,38,27.40
2013,12,23,10,39,37.00
2013,12,23,10,40,27.40
2013,12,23,10,41,29.00
2013,12,23,10,42,27.40
2013,12,23,10,43,37.00
2013,12,23,10,44,19.30
2013,12,23,10,45,32.20
2013,12,23,10,46,30.60
2013,12,23,10,47,33.80
2013,12,23,10,48,25.70
2013,12,23,10,49,22.50
2013,12,23,10,50,27.40
2013,12,23,10,51,24.20
2013,12,23,10,52,20.90
2013,12,23,10,53,29.00
2013,12,23,10,54,38.60
2013,12,23,10,55,30.60
2013,12,23,10,56,32.20
2013,12,23,10,57,27.40
2013,12,23,10,58,22.50
2013,12,23,10,59,35.40
2013,12,23,11,00,37.00
2013,12,23,11,01,25.70
2013,12,23,11,02,29.00
2013,12,23,11,03,22.50
2013,12,23,11,04,29.00
2013,12,23,11,05,24.20
2013,12,23,11,06,27.40
2013,12,23,11,07,35.40
2013,12,23,11,08,25.70
2013,12,23,11,09,22.50
2013,12,23,11,10,25.70
2013,12,23,11,11,30.60
2013,12,23,11,12,25.70
2013,12,23,11,13,24.20
2013,12,23,11,14,37.00
2013,12,23,11,15,30.60
2013,12,23,11,16,29.00
2013,12,23,11,17,32.20
2013,12,23,11,18,29.00
2013,12,23,11,19,25.70
2013,12,23,11,20,27.40
2013,12,23,11,21,41.80
2013,12,23,11,22,24.20
2013,12,23,11,23,35.40
2013,12,23,11,24,16.10
2013,12,23,11,25,22.50
2013,12,23,11,26,40.20
2013,12,23,11,27,29.00
2013,12,23,11,28,32.20
2013,12,23,11,29,30.60
2013,12,23,11,30,24.20
2013,12,23,11,31,27.40
2013,12,23,11,32,33.80
2013,12,23,11,33,32.20
2013,12,23,11,34,19.30
2013,12,23,11,35,30.60
2013,12,23,11,36,27.40
2013,12,23,11,37,27.40
2013,12,23,11,38,49.90
2013,12,23,11,39,20.90
2013,12,23,11,40,20.90
2013,12,23,11,41,22.50
2013,12,23,11,42,20.90
2013,12,23,11,43,30.60
2013,12,23,11,44,40.20
2013,12,23,11,45,24.20
2013,12,23,11,46,32.20
2013,12,23,11,47,33.80
2013,12,23,11,48,51.50
2013,12,23,11,49,25.70
2013,12,23,11,50,30.60
2013,12,23,11,51,29.00
2013,12,23,11,52,27.40
2013,12,23,11,53,30.60
2013,12,23,11,54,22.50
2013,12,23,11,55,40.20
2013,12,23,11,56,25.70
2013,12,23,11,57,17.70
2013,12,23,11,58,27.40
2013,12,23,11,59,38.60
2013,12,23,12,00,22.50
2013,12,23,12,01,37.00
2013,12,23,12,02,20.90
2013,12,23,12,03,24.20
2013,12,23,12,04,32.20
2013,12,23,12,05,38.60
2013,12,23,12,06,20.90
2013,12,23,12,07,19.30
2013,12,23,12,08,30.60
2013,12,23,12,09,27.40
2013,12,23,12,10,14.50
2013,12,23,12,11,25.70
2013,12,23,12,12,32.20
2013,12,23,12,13,25.70
2013,12,23,12,14,22.50
2013,12,23,12,15,35.40
2013,12,23,12,16,35.40
2013,12,23,12,17,30.60
2013,12,23,12,18,20.90
2013,12,23,12,19,24.20
2013,12,23,12,20,27.40
2013,12,23,12,21,24.20
2013,12,23,12,22,29.00
2013,12,23,12,23,14.50
2013,12,23,12,24,35.40
2013,12,23,12,25,27.40
2013,12,23,12,26,20.90
2013,12,23,12,27,33.80
2013,12,23,12,28,37.00
2013,12,23,12,29,24.20
2013,12,23,12,30,24.20
2013,12,23,12,31,27.40
2013,12,23,12,32,17.70
2013,12,23,12,33,33.80
2013,12,23,12,34,24.20
2013,12,23,12,35,25.70
2013,12,23,12,36,24.20
2013,12,23,12,37,27.40
2013,12,23,12,38,20.90
2013,12,23,12,39,29.00
2013,12,23,12,40,25.70
2013,12,23,12,41,30.60
2013,12,23,12,42,27.40
2013,12,23,12,43,22.50
2013,12,23,12,44,24.20
2013,12,23,12,45,24.20
2013,12,23,12,46,30.60
2013,12,23,12,47,16.10
2013,12,23,12,48,24.20
2013,12,23,12,49,19.30
2013,12,23,12,50,30.60
2013,12,23,12,51,30.60
2013,12,23,12,52,27.40
2013,12,23,12,53,33.80
2013,12,23,12,54,20.90
2013,12,23,12,55,32.20
2013,12,23,12,56,30.60
2013,12,23,12,57,25.70
2013,12,23,12,58,25.70
2013,12,23,12,59,19.30
2013,12,23,13,00,22.50
2013,12,23,13,01,32.20
2013,12,23,13,02,35.40
2013,12,23,13,03,24.20
2013,12,23,13,04,24.20
2013,12,23,13,05,25.70
2013,12,23,13,06,20.90
2013,12,23,13,07,24.20
2013,12,23,13,08,27.40
2013,12,23,13,09,27.40
2013,12,23,13,10,29.00
2013,12,23,13,11,25.70
2013,12,23,13,12,32.20
2013,12,23,13,13,33.80
2013,12,23,13,14,25.70
2013,12,23,13,15,25.70
2013,12,23,13,16,30.60
2013,12,23,13,17,25.70
2013,12,23,13,18,25.70
2013,12,23,13,19,17.70
2013,12,23,13,20,20.90
2013,12,23,13,21,30.60
2013,12,23,13,22,29.00
2013,12,23,13,23,32.20
2013,12,23,13,24,29.00
2013,12,23,13,25,27.40
2013,12,23,13,26,22.50
2013,12,23,13,27,27.40
2013,12,23,13,28,30.60
2013,12,23,13,29,35.40
2013,12,23,13,30,29.00
2013,12,23,13,31,24.20
2013,12,23,13,32,25.70
2013,12,23,13,33,20.90
2013,12,23,13,34,20.90
2013,12,23,13,35,22.50
2013,12,23,13,36,30.60
2013,12,23,13,37,22.50
2013,12,23,13,38,33.80
2013,12,23,13,39,30.60
2013,12,23,13,40,24.20
2013,12,23,13,41,32.20
2013,12,23,13,42,25.70
2013,12,23,13,43,27.40
2013,12,23,13,44,29.00
2013,12,23,13,45,37.00
2013,12,23,13,46,25.70
2013,12,23,13,47,29.00
2013,12,23,13,48,24.20
2013,12,23,13,49,27.40
2013,12,23,13,50,20.90
2013,12,23,13,51,27.40
2013,12,23,13,52,22.50
2013,12,23,13,53,17.70
2013,12,23,13,54,27.40
2013,12,23,13,55,25.70
2013,12,23,13,56,20.90
2013,12,23,13,57,33.80
2013,12,23,13,58,20.90
2013,12,23,13,59,27.40
2013,12,23,14,00,17.70
2013,12,23,14,01,19.30
2013,12,23,14,02,27.40
2013,12,23,14,03,29.00
2013,12,23,14,04,25.70
2013,12,23,14,05,19.30
2013,12,23,14,06,19.30
2013,12,23,14,07,27.40
2013,12,23,14,08,27.40
2013,12,23,14,09,24.20
2013,12,23,14,10,27.40
2013,12,23,14,11,19.30
2013,12,23,14,12,22.50
2013,12,23,14,13,37.00
2013,12,23,14,14,25.70
2013,12,23,14,15,30.60
2013,12,23,14,16,37.00
2013,12,23,14,17,37.00
2013,12,23,14,18,29.00
2013,12,23,14,19,25.70
2013,12,23,14,20,19.30
2013,12,23,14,21,20.90
2013,12,23,14,22,27.40
2013,12,23,14,23,17.70
2013,12,23,14,24,24.20
2013,12,23,14,25,22.50
2013,12,23,14,26,19.30
2013,12,23,14,27,16.10
2013,12,23,14,28,20.90
2013,12,23,14,29,20.90
2013,12,23,14,30,19.30
2013,12,23,14,31,20.90
2013,12,23,14,32,14.50
2013,12,23,14,33,17.70
2013,12,23,14,34,20.90
2013,12,23,14,35,25.70
2013,12,23,14,36,20.90
2013,12,23,14,37,33.80
2013,12,23,14,38,19.30
2013,12,23,14,39,20.90
2013,12,23,14,40,22.50
2013,12,23,14,41,27.40
2013,12,23,14,42,30.60
2013,12,23,14,43,29.00
2013,12,23,14,44,32.20
2013,12,23,14,45,17.70
2013,12,23,14,46,12.90
2013,12,23,14,47,20.90
2013,12,23,14,48,24.20
2013,12,23,14,49,20.90
2013,12,23,14,50,17.70
2013,12,23,14,51,19.30
2013,12,23,14,52,22.50
2013,12,23,14,53,16.10
2013,12,23,14,54,16.10
2013,12,23,14,55,16.10
2013,12,23,14,56,19.30
2013,12,23,14,57,25.70
2013,12,23,14,58,20.90
2013,12,23,14,59,27.40
2013,12,23,15,00,17.70
2013,12,23,15,01,17.70
2013,12,23,15,02,14.50
2013,12,23,15,03,29.00
2013,12,23,15,04,27.40
2013,12,23,15,05,20.90
2013,12,23,15,06,20.90
2013,12,23,15,07,22.50
2013,12,23,15,08,20.90
2013,12,23,15,09,22.50
2013,12,23,15,10,29.00
2013,12,23,15,11,12.90
2013,12,23,15,12,37.00
2013,12,23,15,13,20.90
2013,12,23,15,14,17.70
2013,12,23,15,15,27.40
2013,12,23,15,16,25.70
2013,12,23,15,17,24.20
2013,12,23,15,18,30.60
2013,12,23,15,19,17.70
2013,12,23,15,20,25.70
2013,12,23,15,21,29.00
2013,12,23,15,22,17.70
2013,12,23,15,23,16.10
2013,12,23,15,24,27.40
2013,12,23,15,25,20.90
2013,12,23,15,26,24.20
2013,12,23,15,27,33.80
2013,12,23,15,28,22.50
2013,12,23,15,29,24.20
2013,12,23,15,30,20.90
2013,12,23,15,31,29.00
2013,12,23,15,32,24.20
2013,12,23,15,33,25.70
2013,12,23,15,34,16.10
2013,12,23,15,35,19.30
2013,12,23,15,36,12.90
2013,12,23,15,37,9.60
2013,12,23,15,38,19.30
2013,12,23,15,39,11.30
2013,12,23,15,40,24.20
2013,12,23,15,41,27.40
2013,12,23,15,42,24.20
2013,12,23,15,43,29.00
2013,12,23,15,44,11.30
2013,12,23,15,45,16.10
2013,12,23,15,46,38.60
2013,12,23,15,47,19.30
2013,12,23,15,48,16.10
2013,12,23,15,49,25.70
2013,12,23,15,50,25.70
2013,12,23,15,51,17.70
2013,12,23,15,52,14.50
2013,12,23,15,53,17.70
2013,12,23,15,54,20.90
2013,12,23,15,55,14.50
2013,12,23,15,56,19.30
2013,12,23,15,57,20.90
2013,12,23,15,58,25.70
2013,12,23,15,59,20.90
2013,12,23,16,00,22.50
2013,12,23,16,01,22.50
2013,12,23,16,02,25.70
2013,12,23,16,03,17.70
2013,12,23,16,04,24.20
2013,12,23,16,05,14.50
2013,12,23,16,06,11.30
2013,12,23,16,07,16.10
2013,12,23,16,08,20.90
2013,12,23,16,09,24.20
2013,12,23,16,10,19.30
2013,12,23,16,11,27.40
2013,12,23,16,12,17.70
2013,12,23,16,13,24.20
2013,12,23,16,14,20.90
2013,12,23,16,15,24.20
2013,12,23,16,16,19.30
2013,12,23,16,17,16.10
2013,12,23,16,18,27.40
2013,12,23,16,19,20.90
2013,12,23,16,20,38.60
2013,12,23,16,21,22.50
2013,12,23,16,22,14.50
2013,12,23,16,23,25.70
2013,12,23,16,24,17.70
2013,12,23,16,25,24.20
2013,12,23,16,26,16.10
2013,12,23,16,27,20.90
2013,12,23,16,28,24.20
2013,12,23,16,29,25.70
2013,12,23,16,30,22.50
2013,12,23,16,31,24.20
2013,12,23,16,32,30.60
2013,12,23,16,33,17.70
2013,12,23,16,34,25.70
2013,12,23,16,35,20.90
2013,12,23,16,36,19.30
2013,12,23,16,37,20.90
2013,12,23,16,38,22.50
2013,12,23,16,39,25.70
2013,12,23,16,40,22.50
2013,12,23,16,41,25.70
2013,12,23,16,42,19.30
2013,12,23,16,43,24.20
2013,12,23,16,44,25.70
2013,12,23,16,45,22.50
2013,12,23,16,46,27.40
2013,12,23,16,47,25.70
2013,12,23,16,48,25.70
2013,12,23,16,49,16.10
2013,12,23,16,50,22.50
2013,12,23,16,51,24.20
2013,12,23,16,52,14.50
2013,12,23,16,53,29.00
2013,12,23,16,54,19.30
2013,12,23,16,55,19.30
2013,12,23,16,56,25.70
2013,12,23,16,57,22.50
2013,12,23,16,58,12.90
2013,12,23,16,59,14.50
2013,12,23,17,00,14.50
2013,12,23,17,01,12.90
2013,12,23,17,02,20.90
2013,12,23,17,03,24.20
2013,12,23,17,04,24.20
2013,12,23,17,05,17.70
2013,12,23,17,06,25.70
2013,12,23,17,07,22.50
2013,12,23,17,08,14.50
2013,12,23,17,09,16.10
2013,12,23,17,10,11.30
2013,12,23,17,11,14.50
2013,12,23,17,12,19.30
2013,12,23,17,13,16.10
2013,12,23,17,14,14.50
2013,12,23,17,15,20.90
2013,12,23,17,16,20.90
2013,12,23,17,17,17.70
2013,12,23,17,18,16.10
2013,12,23,17,19,12.90
2013,12,23,17,20,20.90
2013,12,23,17,21,24.20
2013,12,23,17,22,17.70
2013,12,23,17,23,24.20
2013,12,23,17,24,16.10
2013,12,23,17,25,17.70
2013,12,23,17,26,24.20
2013,12,23,17,27,19.30
2013,12,23,17,28,24.20
2013,12,23,17,29,24.20
2013,12,23,17,30,22.50
2013,12,23,17,31,24.20
2013,12,23,17,32,24.20
2013,12,23,17,33,20.90
2013,12,23,17,34,20.90
2013,12,23,17,35,24.20
2013,12,23,17,36,17.70
2013,12,23,17,37,22.50
2013,12,23,17,38,25.70
2013,12,23,17,39,24.20
2013,12,23,17,40,22.50
2013,12,23,17,41,20.90
2013,12,23,17,42,17.70
2013,12,23,17,43,25.70
2013,12,23,17,44,20.90
2013,12,23,17,45,20.90
2013,12,23,17,46,16.10
2013,12,23,17,47,17.70
2013,12,23,17,48,20.90
2013,12,23,17,49,20.90
2013,12,23,17,50,20.90
2013,12,23,17,51,20.90
2013,12,23,17,52,19.30
2013,12,23,17,53,20.90
2013,12,23,17,54,17.70
2013,12,23,17,55,24.20
2013,12,23,17,56,24.20
2013,12,23,17,57,25.70
2013,12,23,17,58,22.50
2013,12,23,17,59,22.50
2013,12,23,18,00,20.90
2013,12,23,18,01,25.70
2013,12,23,18,02,24.20
2013,12,23,18,03,20.90
2013,12,23,18,04,16.10
2013,12,23,18,05,20.90
2013,12,23,18,06,22.50
2013,12,23,18,07,22.50
2013,12,23,18,08,25.70
2013,12,23,18,09,19.30
2013,12,23,18,10,19.30
2013,12,23,18,11,37.00
2013,12,23,18,12,25.70
2013,12,23,18,13,22.50
2013,12,23,18,14,25.70
2013,12,23,18,15,29.00
2013,12,23,18,16,27.40
2013,12,23,18,17,35.40
2013,12,23,18,18,30.60
2013,12,23,18,19,17.70
2013,12,23,18,20,22.50
2013,12,23,18,21,24.20
2013,12,23,18,22,30.60
2013,12,23,18,23,24.20
2013,12,23,18,24,29.00
2013,12,23,18,25,29.00
2013,12,23,18,26,30.60
2013,12,23,18,27,32.20
2013,12,23,18,28,24.20
2013,12,23,18,29,24.20
2013,12,23,18,30,22.50
2013,12,23,18,31,25.70
2013,12,23,18,32,24.20
2013,12,23,18,33,19.30
2013,12,23,18,34,25.70
2013,12,23,18,35,17.70
2013,12,23,18,36,19.30
2013,12,23,18,37,19.30
2013,12,23,18,38,25.70
2013,12,23,18,39,24.20
2013,12,23,18,40,19.30
2013,12,23,18,41,24.20
2013,12,23,18,42,20.90
2013,12,23,18,43,16.10
2013,12,23,18,44,16.10
2013,12,23,18,45,19.30
2013,12,23,18,46,22.50
2013,12,23,18,47,16.10
2013,12,23,18,48,19.30
2013,12,23,18,49,19.30
2013,12,23,18,50,19.30
2013,12,23,18,51,19.30
2013,12,23,18,52,20.90
2013,12,23,18,53,14.50
2013,12,23,18,54,22.50
2013,12,23,18,55,16.10
2013,12,23,18,56,17.70
2013,12,23,18,57,24.20
2013,12,23,18,58,12.90
2013,12,23,18,59,11.30
2013,12,23,19,00,25.70
2013,12,23,19,01,16.10
2013,12,23,19,02,14.50
2013,12,23,19,03,17.70
2013,12,23,19,04,9.60
2013,12,23,19,05,20.90
2013,12,23,19,06,19.30
2013,12,23,19,07,16.10
2013,12,23,19,08,14.50
2013,12,23,19,09,24.20
2013,12,23,19,10,19.30
2013,12,23,19,11,19.30
2013,12,23,19,12,25.70
2013,12,23,19,13,20.90
2013,12,23,19,14,16.10
2013,12,23,19,15,12.90
2013,12,23,19,16,24.20
2013,12,23,19,17,20.90
2013,12,23,19,18,20.90
2013,12,23,19,19,16.10
2013,12,23,19,20,16.10
2013,12,23,19,21,14.50
2013,12,23,19,22,17.70
2013,12,23,19,23,17.70
2013,12,23,19,24,20.90
2013,12,23,19,25,19.30
2013,12,23,19,26,17.70
2013,12,23,19,27,17.70
2013,12,23,19,28,22.50
2013,12,23,19,29,32.20
2013,12,23,19,30,11.30
2013,12,23,19,31,14.50
2013,12,23,19,32,16.10
2013,12,23,19,33,9.60
2013,12,23,19,34,16.10
2013,12,23,19,35,8.10
2013,12,23,19,36,4.80
2013,12,23,19,37,11.30
2013,12,23,19,38,25.70
2013,12,23,19,39,29.00
2013,12,23,19,40,8.10
2013,12,23,19,41,16.10
2013,12,23,19,42,16.10
2013,12,23,19,43,14.50
2013,12,23,19,44,14.50
2013,12,23,19,45,12.90
2013,12,23,19,46,19.30
2013,12,23,19,47,19.30
2013,12,23,19,48,25.70
2013,12,23,19,49,9.60
2013,12,23,19,50,22.50
2013,12,23,19,51,20.90
2013,12,23,19,52,17.70
2013,12,23,19,53,24.20
2013,12,23,19,54,19.30
2013,12,23,19,55,16.10
2013,12,23,19,56,17.70
2013,12,23,19,57,19.30
2013,12,23,19,58,24.20
2013,12,23,19,59,22.50
2013,12,23,20,00,19.30
2013,12,23,20,01,22.50
2013,12,23,20,02,16.10
2013,12,23,20,03,20.90
2013,12,23,20,04,14.50
2013,12,23,20,05,17.70
2013,12,23,20,06,19.30
2013,12,23,20,07,24.20
2013,12,23,20,08,20.90
2013,12,23,20,09,17.70
2013,12,23,20,10,22.50
2013,12,23,20,11,16.10
2013,12,23,20,12,17.70
2013,12,23,20,13,29.00
2013,12,23,20,14,25.70
2013,12,23,20,15,16.10
2013,12,23,20,16,19.30
2013,12,23,20,17,20.90
2013,12,23,20,18,19.30
2013,12,23,20,19,20.90
2013,12,23,20,20,20.90
2013,12,23,20,21,20.90
2013,12,23,20,22,22.50
2013,12,23,20,23,17.70
2013,12,23,20,24,17.70
2013,12,23,20,25,22.50
2013,12,23,20,26,24.20
2013,12,23,20,27,24.20
2013,12,23,20,28,16.10
2013,12,23,20,29,14.50
2013,12,23,20,30,12.90
2013,12,23,20,31,12.90
2013,12,23,20,32,16.10
2013,12,23,20,33,17.70
2013,12,23,20,34,20.90
2013,12,23,20,35,25.70
2013,12,23,20,36,27.40
2013,12,23,20,37,19.30
2013,12,23,20,38,22.50
2013,12,23,20,39,17.70
2013,12,23,20,40,20.90
2013,12,23,20,41,19.30
2013,12,23,20,42,22.50
2013,12,23,20,43,16.10
2013,12,23,20,44,19.30
2013,12,23,20,45,20.90
2013,12,23,20,46,20.90
2013,12,23,20,47,29.00
2013,12,23,20,48,27.40
2013,12,23,20,49,22.50
2013,12,23,20,50,20.90
2013,12,23,20,51,29.00
2013,12,23,20,52,25.70
2013,12,23,20,53,20.90
2013,12,23,20,54,20.90
2013,12,23,20,55,22.50
2013,12,23,20,56,25.70
2013,12,23,20,57,20.90
2013,12,23,20,58,27.40
2013,12,23,20,59,27.40
2013,12,23,21,00,24.20
2013,12,23,21,01,29.00
2013,12,23,21,02,22.50
2013,12,23,21,03,25.70
2013,12,23,21,04,20.90
2013,12,23,21,05,17.70
2013,12,23,21,06,20.90
2013,12,23,21,07,17.70
2013,12,23,21,08,22.50
2013,12,23,21,09,22.50
2013,12,23,21,10,17.70
2013,12,23,21,11,20.90
2013,12,23,21,12,14.50
2013,12,23,21,13,27.40
2013,12,23,21,14,19.30
2013,12,23,21,15,16.10
2013,12,23,21,16,24.20
2013,12,23,21,17,16.10
2013,12,23,21,18,17.70
2013,12,23,21,19,16.10
2013,12,23,21,20,16.10
2013,12,23,21,21,16.10
2013,12,23,21,22,20.90
2013,12,23,21,23,20.90
2013,12,23,21,24,24.20
2013,12,23,21,25,19.30
2013,12,23,21,26,17.70
2013,12,23,21,27,20.90
2013,12,23,21,28,17.70
2013,12,23,21,29,14.50
2013,12,23,21,30,11.30
2013,12,23,21,31,19.30
2013,12,23,21,32,22.50
2013,12,23,21,33,14.50
2013,12,23,21,34,19.30
2013,12,23,21,35,19.30
2013,12,23,21,36,12.90
2013,12,23,21,37,16.10
2013,12,23,21,38,19.30
2013,12,23,21,39,9.60
2013,12,23,21,40,9.60
2013,12,23,21,41,12.90
2013,12,23,21,42,12.90
2013,12,23,21,43,9.60
2013,12,23,21,44,11.30
2013,12,23,21,45,9.60
2013,12,23,21,46,14.50
2013,12,23,21,47,9.60
2013,12,23,21,48,9.60
2013,12,23,21,49,9.60
2013,12,23,21,50,8.10
2013,12,23,21,51,12.90
2013,12,23,21,52,16.10
2013,12,23,21,53,17.70
2013,12,23,21,54,19.30
2013,12,23,21,55,20.90
2013,12,23,21,56,8.10
2013,12,23,21,57,12.90
2013,12,23,21,58,11.30
2013,12,23,21,59,17.70
2013,12,23,22,00,9.60
2013,12,23,22,01,9.60
2013,12,23,22,02,8.10
2013,12,23,22,03,16.10
2013,12,23,22,04,12.90
2013,12,23,22,05,8.10
2013,12,23,22,06,20.90
2013,12,23,22,07,17.70